Wind_Speed
31 31 30 30 30 30 31 32 32 32 33 33 33 34 35 35 36 36 37 37 37 38 39 40 40 40 41 41 41 42 42 42 42 42 41 41 41 40 40 40 39 38 37
33 32 32 32 32 32 33 33 33 33 34 35 35 36 36 37 37 38 39 39 39 39 40 41 42 42 42 43 43 43 44 44 44 43 43 42 41 41 40 40 40 40 39
35 34 34 34 34 34 34 34 34 35 36 36 37 38 38 38 39 39 40 41 41 42 42 42 42 42 43 44 44 44 44 44 44 43 43 42 41 41 41 41 41 41 40
36 36 36 35 35 35 36 36 36 36 36 37 38 38 39 39 40 41 41 42 42 43 43 43 43 44 44 45 45 45 45 45 44 44 43 43 42 41 41 41 41 41 41
36 36 37 37 37 37 37 38 38 38 38 38 39 39 40 41 41 42 42 42 43 43 43 43 44 44 45 45 45 46 46 46 45 44 44 44 44 43 42 41 41 41 41
36 37 37 38 38 38 38 39 39 40 39 40 41 41 42 42 43 43 43 43 43 44 44 44 45 45 45 45 45 45 45 45 45 45 45 45 45 44 43 42 42 42 42
36 37 38 38 39 40 40 40 41 41 41 41 42 43 43 43 43 43 43 44 44 44 44 45 45 45 44 44 44 44 44 45 46 46 46 46 46 45 44 44 43 43 44
36 37 39 39 40 41 41 41 41 42 42 42 43 44 44 43 43 44 44 44 45 45 46 46 46 46 45 44 44 43 43 44 44 44 45 45 46 46 45 45 45 45 45
37 38 38 39 40 41 42 43 42 43 43 43 43 44 44 43 43 44 45 45 45 45 46 46 45 45 44 43 43 43 44 43 44 44 44 45 45 46 46 46 46 46 45
37 38 38 39 40 41 42 42 43 43 44 44 44 43 43 43 43 43 44 45 45 45 45 44 44 44 43 42 41 41 42 42 42 43 43 44 45 45 46 46 46 46 46
37 37 38 39 40 40 41 42 42 43 43 43 43 43 43 43 43 43 43 43 44 44 43 43 42 42 42 42 42 42 42 42 41 42 42 43 44 45 45 45 46 45 45
37 37 38 38 40 41 42 42 42 43 43 43 43 43 43 43 43 42 42 41 41 41 41 41 41 41 41 41 42 41 41 42 42 41 42 43 44 44 44 45 45 45 45
36 37 38 38 39 40 41 42 43 43 42 43 43 43 43 42 42 41 40 39 39 40 40 41 40 40 40 40 40 40 40 40 41 41 42 42 42 43 43 44 44 44 44
37 37 38 38 38 39 40 40 41 42 42 42 42 42 42 41 40 40 39 39 39 39 39 39 40 39 39 39 39 39 39 39 40 40 40 40 41 41 42 43 43 43 43
37 37 37 38 38 38 38 39 40 41 42 42 41 41 40 40 40 39 39 39 39 39 39 39 39 39 39 39 38 38 38 38 39 39 39 39 39 40 41 41 42 42 42
36 36 37 37 38 38 39 39 40 40 41 40 39 39 39 39 39 38 38 38 38 38 38 39 38 38 38 37 37 37 37 38 38 39 39 39 40 40 40 40 40 40 39
36 36 36 37 38 38 38 38 39 39 39 38 38 38 38 38 38 37 37 38 38 38 38 38 38 37 37 37 37 37 37 38 38 39 40 39 39 39 39 39 38 38 38
37 37 37 37 38 39 39 38 38 38 38 37 37 38 38 38 37 37 37 37 36 36 36 36 36 36 36 36 36 37 37 38 38 39 39 39 39 39 39 38 37 37 37
37 37 38 38 39 39 39 39 38 37 36 36 36 36 36 36 36 36 36 36 35 35 35 35 35 35 35 36 36 36 37 37 38 38 38 38 38 37 37 36 36 36 36
37 37 38 38 39 39 39 38 37 36 35 34 34 34 34 35 34 34 34 34 34 34 34 34 34 34 34 34 35 36 36 37 37 37 37 36 36 36 36 36 36 35 35
37 37 37 38 38 38 37 36 35 34 34 33 33 33 34 34 33 33 33 33 33 33 33 33 33 33 33 34 35 35 36 36 36 36 35 35 35 35 35 35 35 35 35
37 38 37 37 37 36 35 33 33 33 33 33 33 33 33 33 32 32 32 32 33 33 33 33 32 32 33 33 34 35 35 36 35 35 34 34 35 35 35 35 35 35 36
37 37 37 38 36 35 34 33 32 32 32 32 33 33 32 32 32 31 32 32 31 31 32 32 33 33 33 33 34 34 33 33 33 34 34 34 34 34 34 34 35 35 35
36 36 36 36 35 35 33 32 32 31 32 32 32 32 31 31 31 32 32 31 32 32 32 32 32 32 32 32 32 32 32 33 33 33 33 32 32 32 33 34 34 34 34
34 34 34 34 33 33 32 31 31 31 31 31 31 31 32 32 31 31 31 32 32 32 32 31 31 31 31 31 31 31 32 32 32 32 32 32 31 31 31 31 32 32 31
32 32 32 32 31 31 30 30 29 29 29 30 30 30 31 31 31 31 31 32 32 32 32 32 31 31 31 31 31 32 32 32 32 32 31 30 30 29 29 29 29 29 29
Wind_Direction
258 258 259 261 262 263 262 263 264 265 265 265 266 266 267 268 268 269 269 270 270 270 271 270 271 271 272 273 274 273 273 273 274 274 274 273 273 273 275 274 275 276 278
258 259 260 261 262 263 264 264 264 265 266 266 267 267 268 269 269 270 270 270 270 271 271 272 272 272 272 273 273 273 273 273 274 274 274 273 273 274 275 275 275 276 277
258 260 261 262 263 263 263 264 264 265 266 267 267 268 268 270 271 271 271 271 271 271 272 272 272 272 272 272 272 273 273 273 272 272 273 273 273 273 274 275 275 275 276
259 260 261 262 263 263 264 264 265 266 268 268 268 268 269 271 272 271 271 271 271 272 272 272 271 272 272 272 273 273 272 272 271 271 272 273 273 272 272 273 274 274 275
261 261 262 262 263 264 264 264 265 267 268 269 270 270 270 271 271 272 272 271 271 271 271 271 272 272 272 273 272 272 271 271 270 270 271 272 272 272 272 272 272 273 274
263 262 263 263 264 264 265 265 266 267 268 270 271 271 271 272 272 272 271 271 271 271 271 272 273 273 274 274 273 271 271 270 269 269 271 272 272 272 272 272 273 273 273
265 264 264 264 264 265 266 266 267 267 268 270 271 272 272 273 272 272 271 271 271 271 272 272 273 274 274 273 273 272 271 270 269 269 271 271 271 271 272 273 273 273 274
267 267 266 265 265 266 266 267 268 268 269 270 272 272 273 272 272 273 272 271 271 271 272 272 273 273 273 272 272 272 272 270 269 270 271 271 271 271 271 272 273 273 274
269 268 267 267 268 267 267 267 269 270 270 271 272 274 274 273 273 272 272 271 271 272 272 272 272 272 271 271 272 271 272 271 269 270 271 271 271 270 271 272 273 273 274
271 270 269 268 269 269 269 269 270 272 272 271 272 274 274 274 273 272 272 272 272 272 272 271 271 271 270 271 271 272 271 271 271 271 272 272 271 271 272 273 273 274 275
273 272 271 271 271 271 271 271 272 273 274 273 272 273 273 274 274 273 273 272 272 272 271 271 271 271 271 270 271 272 272 271 271 272 272 272 272 271 272 273 274 275 276
274 274 273 273 272 273 273 273 273 274 274 274 273 272 273 274 274 274 273 273 272 271 270 270 271 272 271 271 271 272 272 271 271 272 273 272 271 272 273 273 274 275 275
276 275 275 276 275 275 274 273 273 274 274 275 274 273 274 274 274 273 273 272 271 271 271 271 272 273 272 272 272 272 272 272 271 272 273 273 273 274 274 274 275 275 276
279 277 277 277 278 277 275 274 273 274 273 274 274 274 274 273 273 272 272 273 273 273 272 272 272 273 272 272 273 273 272 271 272 273 273 273 274 274 275 276 276 275 274
279 279 278 278 278 277 276 275 275 274 273 273 273 273 273 273 272 272 272 273 273 272 272 272 272 272 272 271 271 272 271 270 272 273 274 274 275 276 277 277 276 274 273
278 279 278 278 279 278 278 277 276 275 273 272 272 271 271 272 272 272 272 272 272 272 272 272 272 272 271 271 270 270 270 270 271 272 274 274 276 278 278 278 275 273 273
278 279 279 279 279 280 280 279 278 276 273 271 270 269 271 271 271 272 273 273 272 272 272 272 271 271 270 270 270 269 270 270 271 272 273 274 276 277 277 277 275 272 272
278 278 280 280 281 281 280 280 279 277 274 272 271 271 271 271 271 272 272 273 273 273 272 270 271 271 271 270 270 269 270 271 272 273 274 275 276 277 276 275 273 272 272
279 279 280 282 282 282 280 280 279 277 274 272 271 271 271 271 270 270 271 272 272 271 271 270 270 270 270 270 270 270 271 272 273 275 275 276 276 276 276 273 272 272 273
279 279 281 282 282 282 281 279 277 275 273 271 270 271 271 271 271 271 271 271 270 269 269 270 270 270 270 270 269 270 272 272 273 274 276 276 275 274 274 273 273 273 274
277 278 280 283 283 282 281 278 275 273 271 270 270 270 271 271 270 270 270 269 269 269 269 269 269 270 270 270 270 271 272 273 274 275 276 276 275 274 273 272 273 275 275
278 278 280 282 283 281 279 276 273 271 270 270 269 269 270 270 270 270 270 270 269 269 269 269 269 269 271 271 272 273 274 274 275 275 275 275 274 274 273 273 274 274 274
279 279 280 281 281 280 277 274 272 270 270 270 269 269 270 270 270 269 269 269 269 269 269 270 270 270 270 271 272 273 274 274 275 275 275 275 274 274 274 274 274 274 274
280 280 280 281 281 279 276 273 273 271 270 270 269 269 270 270 270 270 268 268 268 269 270 271 271 271 271 272 272 272 272 274 275 275 275 275 275 274 274 274 274 275 275
280 280 281 282 281 279 276 275 275 273 272 272 271 270 271 271 270 269 268 269 270 269 270 271 271 271 271 271 271 271 273 274 275 275 275 275 274 275 275 276 276 277 276
280 281 282 282 281 279 277 276 275 274 273 272 272 272 273 272 270 269 269 270 272 271 270 272 271 271 271 271 271 271 273 274 275 275 274 274 275 275 276 277 278 278 277
Height
5731 5732 5733 5734 5735 5735 5736 5737 5737 5737 5737 5737 5738 5738 5739 5739 5739 5738 5738 5738 5738 5738 5738 5738 5738 5738 5738 5738 5738 5738 5738 5738 5738 5738 5739 5739 5738 5738 5738 5738 5738 5737 5737
5723 5724 5725 5726 5727 5727 5727 5728 5728 5728 5729 5729 5729 5729 5729 5729 5729 5729 5728 5728 5728 5728 5728 5727 5727 5727 5728 5728 5728 5728 5727 5728 5728 5728 5728 5729 5730 5729 5729 5729 5728 5728 5727
5715 5716 5717 5718 5718 5718 5719 5719 5719 5720 5720 5720 5720 5720 5719 5719 5719 5719 5718 5718 5717 5717 5717 5717 5716 5716 5716 5717 5717 5716 5716 5717 5717 5717 5717 5718 5720 5720 5720 5719 5719 5718 5718
5706 5707 5707 5708 5709 5709 5710 5710 5710 5710 5710 5710 5710 5710 5710 5710 5709 5708 5707 5706 5706 5705 5705 5705 5705 5705 5705 5705 5705 5705 5705 5705 5706 5706 5706 5707 5708 5709 5710 5710 5709 5708 5708
5697 5698 5698 5699 5700 5700 5700 5701 5701 5701 5701 5700 5700 5700 5699 5699 5698 5697 5696 5695 5694 5694 5694 5694 5694 5694 5693 5693 5693 5693 5693 5694 5695 5695 5696 5696 5697 5697 5698 5699 5699 5699 5698
5688 5688 5689 5689 5690 5690 5691 5691 5691 5691 5690 5690 5689 5689 5688 5687 5686 5686 5685 5684 5683 5683 5682 5682 5682 5682 5682 5681 5681 5681 5681 5682 5683 5684 5684 5685 5686 5686 5686 5687 5688 5688 5688
5678 5679 5679 5680 5680 5680 5681 5681 5681 5681 5680 5680 5679 5678 5677 5675 5675 5674 5673 5673 5672 5671 5671 5670 5670 5670 5670 5669 5669 5670 5670 5670 5671 5672 5673 5673 5674 5674 5675 5675 5676 5676 5677
5669 5669 5669 5669 5670 5670 5670 5670 5670 5670 5669 5669 5668 5666 5665 5664 5663 5662 5661 5661 5660 5660 5659 5659 5658 5658 5657 5657 5657 5658 5658 5658 5659 5660 5660 5661 5662 5662 5663 5663 5664 5665 5665
5659 5659 5659 5659 5659 5659 5659 5659 5659 5658 5658 5657 5656 5655 5653 5652 5651 5650 5649 5649 5648 5648 5647 5647 5646 5646 5645 5645 5646 5646 5646 5646 5647 5648 5648 5649 5649 5650 5650 5651 5651 5652 5653
5649 5649 5648 5648 5648 5647 5647 5647 5647 5647 5646 5645 5644 5643 5642 5641 5639 5638 5638 5637 5636 5636 5635 5634 5634 5634 5634 5634 5634 5634 5634 5635 5635 5636 5636 5637 5637 5638 5638 5638 5639 5639 5640
5639 5639 5639 5638 5637 5637 5636 5636 5635 5635 5634 5633 5632 5631 5630 5629 5628 5627 5626 5625 5624 5624 5623 5623 5622 5622 5622 5622 5623 5623 5623 5623 5624 5624 5624 5625 5625 5625 5626 5626 5626 5627 5627
5629 5629 5628 5627 5627 5626 5625 5624 5624 5623 5622 5621 5621 5620 5619 5618 5617 5616 5615 5614 5613 5612 5612 5612 5611 5611 5611 5611 5611 5612 5612 5612 5612 5613 5613 5613 5613 5613 5614 5614 5614 5614 5614
5620 5619 5618 5617 5616 5614 5613 5613 5612 5611 5610 5610 5609 5609 5608 5607 5606 5605 5604 5603 5602 5602 5601 5601 5601 5600 5600 5600 5600 5601 5601 5601 5601 5602 5602 5602 5602 5602 5602 5602 5602 5602 5602
5610 5609 5608 5607 5605 5603 5602 5601 5600 5600 5599 5598 5597 5597 5596 5596 5595 5595 5594 5593 5592 5591 5590 5590 5590 5590 5590 5590 5590 5590 5590 5591 5591 5591 5591 5591 5591 5591 5591 5590 5591 5591 5591
5600 5598 5597 5596 5595 5593 5592 5590 5589 5588 5587 5586 5586 5585 5585 5585 5585 5584 5583 5582 5581 5581 5580 5580 5580 5579 5579 5580 5580 5580 5580 5580 5580 5580 5580 5580 5580 5580 5579 5579 5579 5579 5579
5590 5589 5587 5586 5585 5583 5582 5580 5578 5577 5576 5575 5575 5574 5574 5574 5574 5573 5573 5572 5571 5570 5570 5570 5569 5569 5569 5569 5569 5569 5569 5570 5570 5570 5570 5570 5570 5570 5569 5568 5568 5568 5568
5580 5579 5577 5576 5575 5573 5571 5569 5567 5566 5564 5564 5564 5564 5564 5564 5564 5563 5562 5561 5561 5560 5559 5559 5559 5559 5560 5560 5560 5559 5560 5560 5560 5560 5560 5560 5560 5559 5558 5558 5557 5557 5557
5570 5569 5567 5566 5564 5562 5560 5558 5557 5555 5554 5554 5553 5553 5553 5553 5553 5553 5552 5551 5550 5550 5550 5549 5550 5550 5550 5550 5550 5550 5550 5550 5550 5550 5550 5550 5549 5549 5548 5548 5547 5547 5547
5560 5559 5557 5555 5554 5551 5549 5547 5546 5545 5544 5543 5543 5543 5543 5543 5543 5542 5542 5541 5541 5541 5540 5540 5540 5541 5541 5541 5540 5540 5540 5541 5540 5540 5540 5539 5539 5539 5538 5538 5538 5538 5538
5550 5549 5547 5545 5543 5540 5538 5537 5535 5534 5534 5533 5533 5533 5533 5533 5533 5532 5532 5532 5531 5532 5532 5532 5531 5531 5532 5531 5531 5531 5531 5531 5531 5530 5530 5529 5529 5528 5528 5528 5528 5528 5528
5540 5538 5537 5534 5532 5530 5528 5526 5525 5524 5524 5524 5524 5524 5524 5524 5523 5523 5523 5522 5522 5522 5523 5523 5522 5522 5522 5522 5522 5522 5521 5521 5521 5521 5520 5519 5519 5519 5518 5518 5518 5518 5518
5530 5528 5526 5524 5522 5520 5518 5517 5516 5515 5515 5515 5515 5515 5514 5514 5514 5514 5514 5514 5513 5513 5513 5514 5514 5513 5513 5513 5513 5512 5512 5512 5512 5511 5511 5510 5509 5509 5509 5508 5509 5508 5508
5520 5518 5516 5514 5512 5510 5508 5507 5506 5506 5506 5506 5505 5505 5505 5505 5505 5505 5505 5505 5505 5505 5505 5505 5505 5505 5504 5504 5503 5503 5503 5502 5502 5502 5501 5500 5500 5499 5499 5499 5499 5499 5498
5510 5508 5506 5504 5502 5501 5499 5498 5497 5497 5497 5496 5496 5496 5496 5496 5496 5496 5496 5496 5497 5496 5496 5496 5496 5496 5495 5495 5494 5494 5493 5493 5493 5492 5491 5491 5490 5490 5490 5489 5489 5489 5489
5500 5498 5496 5495 5493 5491 5490 5489 5488 5488 5488 5488 5487 5487 5487 5487 5488 5488 5488 5488 5488 5487 5487 5487 5487 5487 5487 5486 5485 5485 5485 5484 5484 5483 5482 5482 5482 5481 5481 5481 5480 5480 5480
5490 5489 5487 5485 5484 5483 5482 5480 5479 5479 5479 5479 5479 5479 5479 5479 5479 5479 5479 5479 5479 5479 5478 5478 5478 5478 5477 5477 5477 5476 5476 5475 5475 5474 5474 5474 5473 5473 5473 5472 5472 5471 5471